Breckenridge, TX

10:34 AM CDT on August 28, 2016 (GMT -0500)
Stephens County

Weather History for KBKD - May, 2013

Change the Weather History Date:

Thursday, May 9, 2013

  Actual Average (KABI) Record (KABI)
Temperature  
Mean Temperature 70 °F 71 °F  
Max Temperature 79 °F 83 °F 101 °F (1886)
Min Temperature 63 °F 59 °F 44 °F (1969)
Degree Days  
Heating Degree Days 0 1  
Month to date heating degree days 9  
Since 1 July heating degree days 2551  
Cooling Degree Days 6 7  
Month to date cooling degree days 56  
Year to date cooling degree days 189  
Growing Degree Days 20 (Base 50)    
Moisture  
Dew Point 59 °F    
Average Humidity 67    
Maximum Humidity 81    
Minimum Humidity 52    
Precipitation  
Precipitation 0.01 in 0.08 in 1.79 in (1920)
Month to date precipitation 0.77  
Year to date precipitation 6.53  
Sea Level Pressure  
Sea Level Pressure 29.89 in    
Wind  
Wind Speed 9 mph (SSE)    
Max Wind Speed 26 mph    
Max Gust Speed 39 mph    
Visibility 10 miles    
Events Rain , Thunderstorm    
T = Trace of Precipitation, MM = Missing Value Source: NWS Daily Summary

Daily Weather History Graph

Daily Weather History Graph

Search for Another Location

Airport or City:

Trip Planner

Search our weather history database for the weather conditions in past years. The results will help you decide how hot, cold, wet, or windy it might be!

Date:

Astronomy

May. 09, 2013 Rise Set
Actual Time 6:41 AM CDT 8:23 PM CDT
Civil Twilight 6:14 AM CDT 8:50 PM CDT
Nautical Twilight 5:42 AM CDT 9:22 PM CDT
Astronomical Twilight 5:08 AM CDT 9:56 PM CDT
Moon 6:25 AM CDT (5/9) 8:20 PM CDT (5/9)
Length of Visible Light 14h 35m
Length of Day
13h 42m
Waning Crescent, 0% of the Moon is Illuminated
May 9
Waning Crescent
May 9
New
May 17
First Quarter
May 24
Full
May 31
Last Quarter

Hourly Weather History & Observations

Time (CDT) Temp. Dew Point Humidity Pressure Visibility Wind Dir Wind Speed Gust Speed Precip Events Conditions
12:35 AM 72.1 °F 61.0 °F 68% 29.88 in 10.0 mi South 5.8 mph - N/A   Clear
12:55 AM 72.0 °F 60.8 °F 68% 29.88 in 10.0 mi South 6.9 mph - N/A   Clear
1:35 AM 70.9 °F 60.8 °F 70% 29.86 in 10.0 mi SSE 6.9 mph - N/A   Clear
1:55 AM 70.2 °F 60.6 °F 72% 29.86 in 10.0 mi South 6.9 mph - N/A   Clear
4:15 AM 69.3 °F 59.2 °F 70% 29.85 in 10.0 mi South 11.5 mph 18.4 mph N/A   Clear
4:35 AM 68.9 °F 59.4 °F 72% 29.85 in 10.0 mi South 13.8 mph 19.6 mph N/A   Clear
5:15 AM 68.4 °F 59.9 °F 74% 29.85 in 10.0 mi South 15.0 mph 20.7 mph N/A   Clear
5:35 AM 68.0 °F 60.1 °F 76% 29.86 in 10.0 mi South 15.0 mph 19.6 mph N/A   Clear
7:15 AM 68.9 °F 62.2 °F 79% 29.87 in 10.0 mi SSW 5.8 mph - N/A   Clear
9:55 AM 77.4 °F 63.5 °F 62% 29.89 in 10.0 mi SSW 10.4 mph 18.4 mph N/A   Clear
10:15 AM 78.4 °F 60.6 °F 54% 29.86 in 10.0 mi SSW 10.4 mph - N/A   Clear
10:35 AM 77.4 °F 58.3 °F 52% 29.91 in 10.0 mi South 11.5 mph 17.3 mph N/A   Clear
10:55 AM 76.3 °F 58.1 °F 53% 29.91 in 10.0 mi SSW 11.5 mph - N/A   Clear
11:15 AM 75.9 °F 57.0 °F 52% 29.93 in 10.0 mi North - - N/A   Scattered Clouds
11:35 AM 73.6 °F 62.6 °F 68% 29.95 in 10.0 mi SSW 26.5 mph 33.4 mph N/A Rain , Thunderstorm Rain
11:55 AM 71.6 °F 62.6 °F 73% 29.93 in 10.0 mi South 21.9 mph 28.8 mph N/A   Light Drizzle
12:15 PM 71.8 °F 61.0 °F 69% 29.93 in 10.0 mi North - - N/A Thunderstorm Mostly Cloudy
12:35 PM 70.7 °F 59.0 °F 66% 29.90 in 10.0 mi SSE 21.9 mph 27.6 mph N/A Thunderstorm Mostly Cloudy
12:55 PM 72.3 °F 59.2 °F 63% 29.89 in 10.0 mi SE 20.7 mph 28.8 mph N/A   Scattered Clouds
1:15 PM 72.3 °F 58.8 °F 62% 29.92 in 10.0 mi SSE 16.1 mph 24.2 mph N/A   Clear
1:35 PM 72.9 °F 57.9 °F 59% 29.93 in 10.0 mi South 6.9 mph - N/A   Scattered Clouds
1:55 PM 75.2 °F 57.2 °F 53% 29.94 in 10.0 mi South 9.2 mph - N/A   Scattered Clouds
3:15 PM 73.2 °F 59.4 °F 62% 29.94 in 10.0 mi South 5.8 mph - N/A   Scattered Clouds
3:35 PM 73.6 °F 58.8 °F 60% 29.94 in 10.0 mi NW 3.5 mph - N/A   Scattered Clouds
3:55 PM 73.2 °F 57.0 °F 57% 29.93 in 10.0 mi Calm Calm - N/A   Clear
4:15 PM 73.0 °F 56.3 °F 56% 29.93 in 10.0 mi ESE 4.6 mph - N/A   Scattered Clouds
4:35 PM 72.5 °F 57.7 °F 60% 29.93 in 10.0 mi East 4.6 mph - N/A Rain Light Rain
4:55 PM 71.6 °F 57.9 °F 62% 29.95 in 10.0 mi SSE 4.6 mph - N/A Rain Light Rain
5:15 PM 69.1 °F 58.5 °F 69% 29.92 in 10.0 mi ESE 10.4 mph - N/A Rain Light Rain
5:35 PM 67.8 °F 57.6 °F 70% 29.85 in 10.0 mi SSE 23.0 mph 39.1 mph N/A Rain Light Rain
5:55 PM 68.0 °F 58.3 °F 71% 29.84 in 10.0 mi SE 12.7 mph - N/A   Scattered Clouds
6:15 PM 69.4 °F 58.5 °F 68% 29.83 in 10.0 mi ESE 11.5 mph - N/A   Clear
6:35 PM 70.2 °F 58.5 °F 66% 29.83 in 10.0 mi SE 10.4 mph 17.3 mph N/A   Clear
6:55 PM 72.3 °F 58.1 °F 61% 29.81 in 10.0 mi SE 11.5 mph 16.1 mph N/A   Clear
7:15 PM 72.5 °F 57.6 °F 59% 29.81 in 10.0 mi ESE 5.8 mph - N/A   Clear
7:35 PM 72.1 °F 57.6 °F 60% 29.83 in 10.0 mi SSE 3.5 mph - N/A   Clear
7:55 PM 70.7 °F 57.4 °F 63% 29.84 in 10.0 mi South 3.5 mph - N/A   Clear
8:15 PM 69.8 °F 57.9 °F 66% 29.85 in 10.0 mi Calm Calm - N/A   Clear
8:35 PM 69.3 °F 57.2 °F 65% 29.86 in 10.0 mi South 4.6 mph - N/A   Clear
8:55 PM 68.7 °F 57.2 °F 67% 29.87 in 10.0 mi South 4.6 mph - 0.01 in   Clear
9:15 PM 68.0 °F 57.0 °F 68% 29.88 in 10.0 mi Calm Calm - N/A   Clear
9:35 PM 63.9 °F 57.0 °F 78% 29.89 in 10.0 mi Calm Calm - N/A   Clear
9:55 PM 63.5 °F 57.6 °F 81% 29.92 in 10.0 mi NNE 9.2 mph - N/A   Clear
10:15 PM 64.6 °F 57.7 °F 78% 29.94 in 10.0 mi NNE 6.9 mph - N/A   Scattered Clouds
10:55 PM 63.9 °F 57.4 °F 79% 29.97 in 10.0 mi Calm Calm - N/A   Scattered Clouds
11:15 PM 63.9 °F 57.6 °F 80% 29.97 in 10.0 mi East 6.9 mph - N/A   Scattered Clouds
11:35 PM 64.4 °F 57.7 °F 79% 29.96 in 10.0 mi East 5.8 mph - N/A   Scattered Clouds
11:55 PM 64.2 °F 58.1 °F 80% 29.95 in 10.0 mi East 4.6 mph - N/A   Clear